Volver al catálogo

FENGYUN 1C DEB

LostSSO
NORAD 31340·DEBRIS·🇨🇳 China

Lanzado May 10, 1999 desde Taiyuan Satellite Launch Center

Loading…

Próximos Pases (próximas 24 horas)

TLE

ObsoletoSource: Space-Track

Época: Sep 10, 2022, 09:54 UTC

1 31340U 99025BQU 22253.41262889  .00002471  00000-0  11755-2 0  9995
2 31340  98.9648 322.4618 0041877 228.9152 130.8403 14.19874503793560

Sigue FENGYUN 1C DEB en tiempo real con AllMySat

Download on the App Store